Location: Marcé
(47.5801°N, 0.3280°W)
Time: 00:53:09
(UTC+01:00)

Explorer 11/Cluster Stage 4 - All Passes

Search period start: 30 November 2021 00:00
Search period end: 10 December 2021 00:00
Orbit: 467 x 1255 km, 28.8° (Epoch: 29 November)

Date Brightness Start Highest point End Pass type
(mag) Time Alt. Az. Time Alt. Az. Time Alt. Az.
30 Nov - 05:09:19 10° SSW 05:13:54 17° SSE 05:18:37 10° SE visible
30 Nov - 06:56:27 10° SW 07:01:45 19° S 07:07:04 10° SE visible
30 Nov - 08:46:00 10° SW 08:49:31 13° SSW 08:52:58 10° S daylight
01 Dec - 04:57:38 10° SSW 05:02:14 17° SSE 05:07:03 10° SE visible
01 Dec - 06:44:54 10° SW 06:50:05 19° S 06:55:20 10° SE visible
01 Dec - 08:34:49 10° SW 08:37:51 12° SSW 08:40:51 10° S daylight
02 Dec - 04:46:02 10° SSW 04:50:35 17° S 04:55:25 10° SE visible
02 Dec - 06:33:27 10° SW 06:38:26 18° S 06:43:32 10° SSE visible
02 Dec - 08:23:53 10° SW 08:26:10 11° SSW 08:28:27 10° S daylight
03 Dec - 04:34:31 10° SSW 04:38:57 17° S 04:43:42 10° SE visible
03 Dec - 06:22:03 10° SW 06:26:46 17° S 06:31:39 10° SSE visible
03 Dec - 08:13:52 10° SSW 08:14:30 10° SSW 08:15:08 10° SSW daylight
04 Dec - 04:23:04 10° SSW 04:27:20 17° S 04:31:56 10° SE visible
04 Dec - 06:10:45 10° SW 06:15:08 16° S 06:19:41 10° SSE visible
05 Dec - 02:27:41 10° SSE 02:28:17 10° SSE 02:28:53 10° SSE night (unlit)
05 Dec - 04:11:41 10° SSW 04:15:44 16° S 04:20:07 10° SE visible
05 Dec - 05:59:34 10° SW 06:03:30 15° S 06:07:36 10° SSE visible
06 Dec - 02:16:01 10° SSE 02:16:42 10° SSE 02:17:25 10° SSE night (unlit)
06 Dec - 04:00:23 10° SSW 04:04:09 16° S 04:08:14 10° SE visible
06 Dec - 05:48:31 10° SW 05:51:52 14° SSW 05:55:23 10° SSE visible
07 Dec - 02:04:42 10° SSE 02:05:10 10° SSE 02:05:38 10° SSE night (unlit)
07 Dec - 03:49:10 10° SSW 03:52:35 15° S 03:56:17 10° SSE visible
07 Dec - 05:37:43 10° SW 05:40:15 12° SSW 05:42:55 10° S visible
08 Dec - 03:38:03 10° SSW 03:41:02 14° S 03:44:15 10° SSE visible
08 Dec - 05:27:32 10° SSW 05:28:40 10° SSW 05:29:48 10° S visible
09 Dec - 03:27:05 10° SSW 03:29:30 12° S 03:32:05 10° SSE visible
